This demonstration page uses our WeatherBlox Daily Observations layout. Learn more.

Left ArrowRight Arrow

39.29038, -76.61219

Hourly Observations for October 25, 2021

Temp ( °F °C ) Dew Point ( °F °C ) Humidity (%) Winds ( mph kmh ) Pressure ( in mb ) Visibility ( mi km ) Precip ( " mm )
12:54 am 00:54 Clear 62 16.7 56 13.3 80 80 VRB 3 6 30.01 1016 10 16 N/A
1:54 am 01:54 Mostly Cloudy 61 16.1 56 13.3 84 84 N N/A 30.01 1016 10 16 N/A
2:54 am 02:54 Mostly Cloudy 59 15 54 12.2 83 83 N N/A 29.99 1016 10 16 N/A
3:54 am 03:54 Mostly Cloudy 59 15 56 13.3 90 90 N N/A 29.98 1015 10 16 N/A
4:54 am 04:54 Mostly Cloudy 60 15.6 57 13.9 90 90 N N/A 29.97 1015 10 16 N/A
5:54 am 05:54 Mostly Cloudy 59 15 56 13.3 90 90 N N/A 29.96 1015 10 16 N/A
6:54 am 06:54 Mostly Cloudy 62 16.7 58 14.4 86 86 SSW 3 6 29.95 1014 10 16 N/A
7:54 am 07:54 Mostly Cloudy 63 17.2 59 15 87 87 N N/A 29.96 1014 10 16 N/A
8:54 am 08:54 Mostly Cloudy 64 17.8 60 15.6 87 87 VRB 3 6 29.94 1014 10 16 N/A
9:54 am 09:54 Mostly Cloudy 69 20.6 61 16.1 76 76 SW 12 19 29.93 1014 10 16 N/A
10:54 am 10:54 Partly Cloudy 74 23.3 59 15 60 60 S 9 15 29.89 1012 10 16 N/A
11:54 am 11:54 Partly Cloudy 77 25 57 13.9 50 50 SSW 13 20 29.88 1012 10 16 N/A
12:54 pm 12:54 Mostly Cloudy 79 26.1 57 13.9 47 47 SSW 9 15 29.84 1011 10 16 N/A
1:54 pm 13:54 Mostly Cloudy 78 25.6 55 12.8 45 45 SSW 15 24 29.80 1009 10 16 N/A
2:54 pm 14:54 Mostly Cloudy 79 26.1 58 14.4 49 49 SW 8 13 29.77 1008 10 16 N/A
3:54 pm 15:54 Mostly Cloudy 79 26.1 59 15 50 50 SSW 8 13 29.75 1008 10 16 N/A
4:54 pm 16:54 Mostly Cloudy 76 24.4 64 17.8 67 67 SE 8 13 29.74 1007 10 16 N/A
5:54 pm 17:54 Cloudy 73 22.8 65 18.3 76 76 SE 10 17 29.71 1006 10 16 N/A
6:54 pm 18:54 Cloudy with Light Rain 68 20 64 17.8 87 87 WNW 7 11 29.72 1007 4 6 0.04 1.02
7:54 pm 19:54 Cloudy 66 18.9 63 17.2 90 90 N N/A 29.72 1006 10 16 0.03 0.76
8:20 pm 20:20 Cloudy with Heavy Rain 66 18.9 64 17.8 93 93 SE 3 6 29.72 1006 3 4 0.04 1.02
8:28 pm 20:28 Cloudy with Rain 66 18.9 64 17.8 93 93 E 5 7 29.72 1006 3 5 0.08 2.03
8:34 pm 20:34 Cloudy with Rain 66 18.9 64 17.8 93 93 SSW 3 6 29.72 1006 4 6 0.10 2.54
8:54 pm 20:54 Cloudy with Rain 66 18.9 64 17.8 93 93 E 7 11 29.71 1006 4 6 0.18 4.57
9:03 pm 21:03 Cloudy with Light Rain 66 18.9 64 17.8 93 93 N 5 7 29.72 1006 4 6 0.02 0.51
9:11 pm 21:11 Cloudy with Heavy Rain 64 17.8 62 16.7 93 93 W 9 15 29.73 1007 2 3 0.09 2.29
9:36 pm 21:36 Cloudy with Heavy Rain 64 17.8 63 17.2 96 96 NW 3 6 29.73 1007 1 1 0.76 19.30
9:42 pm 21:42 Cloudy with Heavy Rain 64 17.8 63 17.2 96 96 VRB 3 6 29.73 1007 1 2 0.89 22.61
9:49 pm 21:49 Cloudy with Rain 64 18 63 17 94 94 VRB 5 7 29.73 1007 3 5 0.94 23.88
9:54 pm 21:54 Cloudy with Heavy Rain 64 17.8 62 16.7 93 93 NNE 8 13 29.72 1006 3 5 0.97 24.64
10:16 pm 22:16 Cloudy with Heavy Rain 63 17.2 61 16.1 93 93 NW 10 17 29.72 1006 3 4 0.14 3.56
10:43 pm 22:43 Cloudy with Rain 63 17.2 60 15.6 90 90 NW 7 11 29.70 1006 4 6 0.34 8.64
10:54 pm 22:54 Cloudy with Rain 62 16.7 60 15.6 93 93 NW 6 9 29.68 1005 4 6 0.38 9.65
11:54 pm 23:54 Cloudy with Rain 62 16.7 60 15.6 93 93 E 10 17 29.63 1003 5 8 0.27 6.86

Powered by AerisWeather